Weather Roundup
Issued by NWS

Home | Current Version | Previous Version | Graphics & Text | Print | Product List | Glossary Off
Versions: 1 2 3 4 5 6 7 8 9 10 11 12 13 14 15 16 17 18 19 20 21 22 23 24 25 26 27 28 29 30 31 32 33 34 35 36 37 38 39 40 41 42 43 44 45 46 47 48 49 50

639
NZUS93 KARX 252110
HRRWXR

CURRENT HOURLY OBSERVATIONS ACROSS
MUCH OF THE UPPER MISSISSIPPI VALLEY
NATIONAL WEATHER SERVICE LA CROSSE WI
400 PM CDT SUN SEP 25 2016


...SOUTHEAST MINNESOTA...


CITY           SKY/WX    TMP DP  RH WIND       PRES   REMARKS
ROCHESTER      CLOUDY    66  52  60 W16G24    29.94R
ROCHESTER/MAYO   N/A     65  52  62 W14G28    29.92S
WINONA         CLOUDY    70  54  56 W8        29.90F
AUSTIN         CLOUDY    63  52  67 W15G24    29.96R
ALBERT LEA     CLOUDY    63  52  67 W12G18    29.97R
DODGE CENTER   CLOUDY    63  52  67 W20G26    29.94S
PRESTON        CLOUDY    64  51  61 W15G21    29.94F
OWATONNA       CLOUDY    63  52  67 W13G21    29.94S
FARIBAULT      CLOUDY    63  55  77 W17G23    29.94S
$$

...ELSEWHERE IN MINNESOTA...


CITY           SKY/WX    TMP DP  RH WIND       PRES   REMARKS
MINNEAPOLIS    CLOUDY    62  54  74 W14G24    29.90R
INTNL FALLS    CLOUDY    60  51  72 SW15G26   29.67S
DULUTH         CLOUDY    61  53  75 SW16      29.78S
RED WING       CLOUDY    64  52  63 W10G16    29.89F
REDWOOD FALLS  CLOUDY    62  47  57 NW15G33   29.97R
MANKATO        LGT RAIN  61  52  72 W20G25    29.96R
WORTHINGTON    CLOUDY    59  49  69 W20G28    30.05R
FAIRMONT       CLOUDY    61  50  67 W21G29    30.00R
$$

...SOUTHWEST WISCONSIN...


CITY           SKY/WX    TMP DP  RH WIND       PRES   REMARKS
LA CROSSE      CLOUDY    72  55  55 W18G25    29.88R
PRAIRIE DU CHI CLOUDY    72  58  61 W12       29.91R
BOSCOBEL       CLOUDY    75  66  73 SW10      29.89S
LONE ROCK      CLOUDY    75  66  73 W10       29.88F
PLATTEVILLE    CLOUDY    75  68  77 SW15      29.91F
FORT MC COY    CLOUDY    73  64  74 W8        29.86F
MAUSTON-NEW LI CLOUDY    74  68  80 SW6       29.85F
VIROQUA        FAIR      71  58  64 W14G20    29.90S
WIS DELLS      CLOUDY    75  65  73 SW9       29.87F
$$

...ELSEWHERE IN WISCONSIN...


CITY           SKY/WX    TMP DP  RH WIND       PRES   REMARKS
MILWAUKEE      PTSUNNY   74  64  71 SE14      29.88F
MADISON        PTSUNNY   76  70  82 SW7       29.86F
GREEN BAY      CLOUDY    72  67  84 SE14      29.83F
EAU CLAIRE     PTSUNNY   67  54  63 W13G22    29.86F
BLACK RVR FLS  FAIR      71  57  60 W12G18    29.86S
MEDFORD        CLOUDY    68  65  92 SW7G17    29.85R
WAUSAU         PTSUNNY   69  66  90 SW7       29.83F
WIS RAPIDS     CLOUDY    74  68  81 SW10      29.85F
MARSHFIELD     CLOUDY    72  65  78 SW15      29.84F
RICE LAKE      CLOUDY    62  51  67 W12G22    29.89R
$$

...NORTHEAST IOWA...


CITY           SKY/WX    TMP DP  RH WIND       PRES   REMARKS
WATERLOO       CLOUDY    66  51  58 W15       29.98R
DUBUQUE        MOSUNNY   74  66  76 SW13G21   29.93S
DECORAH        MOSUNNY   66  54  63 W12G23    29.94R
MASON CITY     CLOUDY    64  51  62 W23       30.00R
CHARLES CITY   CLOUDY    66  50  55 W14G24    29.98S
OELWEIN        MOSUNNY   66  54  63 W16G23    29.98R
$$

...ELSEWHERE IN IOWA...


CITY           SKY/WX    TMP DP  RH WIND       PRES   REMARKS
DES MOINES     CLOUDY    69  52  54 W16G25    30.04S
IOWA CITY      CLOUDY    71  58  63 W20G26    30.00R
FORT DODGE     CLOUDY    63  48  59 W13G28    30.06R
MARSHALLTOWN   CLOUDY    66  53  63 W15G25    30.01R
CEDAR RAPIDS   CLOUDY    68  57  68 W15       29.98R
$$

...NORTHERN ILLINOIS...


CITY           SKY/WX    TMP DP  RH WIND       PRES   REMARKS
CHICAGO-OHARE  CLOUDY    85  67  54 S15       29.90F
CHICAGO-MIDWAY PTSUNNY   83  70  64 E8        29.91F
MOLINE         MOSUNNY   82  66  58 W17       29.93S
ROCKFORD       MOSUNNY   84  69  60 SW12      29.90F
PEORIA         CLOUDY    87  67  51 W10       29.94F HX  90
$$

NOTE: "FAIR" INDICATES FEW OR NO CLOUDS BELOW 12,000 FEET WITH NO
SIGNIFICANT WEATHER AND/OR OBSTRUCTIONS TO VISIBILITY. WIND
SPEEDS ARE IN MILES-PER-HOUR.




USA.gov is the U.S. government's official web portal to all federal, state and local government web resources and services.